Location: Henham
(51.9333°N, 0.2500°E)
Time: 19:30:37
(UTC+00:00)

Cosmos 1300 - Pass Details

Date: 23 October 2019
Orbit: 511 x 515 km, 82.5° (Epoch: 17 November)

Event Time Altitude Azimuth Distance (km) Brightness Sun altitude
Rises 17:18:03 0° 139° (SE) 2,624 6.0 -5.2°
Reaches altitude 10° 17:21:09 10° 111° (ESE) 1,744 4.9 -5.6°
Maximum altitude 17:22:56 13° 83° (E) 1,562 4.5 -5.9°
Drops below altitude 10° 17:24:44 10° 55° (NE) 1,750 4.8 -6.2°
Sets 17:27:51 0° 28° (NNE) 2,643 5.9 -6.7°
